Location: Pagani
(40.7500°N, 14.6167°E)
Time: 12:29:10
(UTC+00:00)

Delta 2 Rocket - Pass Details

Date: 15 May 2026
Orbit: 321 x 412 km, 35.6° (Epoch: 8 June)

Event Time Altitude Azimuth Distance (km) Brightness Sun altitude
Rises 19:44:25 0° 257° (WSW) 2,242 6.9 -15.2°
Reaches altitude 10° 19:46:40 10° 246° (WSW) 1,367 5.6 -15.6°
Enters shadow 19:49:14 29° 191° (SSW) 689 3.5 -15.9°
